{"data":{"norad_id":64472,"epoch":"2026-05-25T05:28:42.317184Z","epoch_age_seconds":49129,"freshness":"FRESH","line1":"1 64472U 25133A   26145.22826756  .00017704  00000+0  60822-3 0  9992","line2":"2 64472  53.1569 121.5098 0001148  74.2914 285.8213 15.30212061 52907","mean_motion":15.30212061,"eccentricity":0.0001148,"inclination_deg":53.1569,"raan_deg":121.5098,"arg_perigee_deg":74.2914,"mean_anomaly_deg":285.8213,"bstar":0.00060822,"rev_number":5290,"period_min":94.104603976194,"perigee_km":474.39229700045,"apogee_km":475.96581836729,"semimajor_km":6853.3160576839,"source":"CELESTRAK","updated_at":"2026-05-25T13:38:20.455273Z"}}